Rbgn^[z[y[W
メイン
   新天体発見情報
     Comet P/2014 W12 = 2021 Q1 (Gibbs)
投稿するにはまず登録を

スレッド表示 | 新しいものから 前のトピック | 次のトピック | 下へ
投稿者 スレッド
佐藤裕久
投稿日時: 2021-8-25 20:35
モデレータ
登録日: 2005-6-12
居住地: 日本
投稿: 2701
オンライン
Comet P/2014 W12 = 2021 Q1 (Gibbs)

E. Schwab (Egelsbach, ドイツ)の通報によると、8月16日と17日UT、Calar Alto のプログラム
(協力者: D. Koschny, M. MicheliとE. Petrescu)の0.8-m f/3 Schmidt望遠鏡で得たCCD画像
からP/2014 W12 (CBET 4032参照)を検出した。二夜それぞれ、60秒露出12枚のスタックに、p.a.
250°に向かって約10"の尾が見えた。

検出位置は次のとおり、

     2021 UT             R.A. (2000) Decl.       Mag.   Observer
     Aug. 16.13113    3 28 57.03   +28 51 54.2   20.0   Schwab
          16.14341    3 28 58.24   +28 52 01.1   19.9     "
          16.15569    3 28 59.37   +28 52 07.4   20.0     "
          17.13880    3 30 33.12   +29 00 58.5   19.8     "
          17.14800    3 30 33.95   +29 01 03.2   20.2     "
          17.15720    3 30 34.85   +29 01 08.5   20.1     "

佐藤英貴氏(東京都文京区, 8月7.5日UT, 60秒露出12枚のスタック,0.51-m f/6.8 アストログラフ, 
Mayhill近郊, ニューメキシコ州, 米国, 遠隔操作: 強く集光した8"のコマが見えるが尾はない。
4".9の円形範囲で測定した光度は19.6等であった)の検出前の観測が確認された。

佐藤英貴氏の検出前の位置は次のとおり、

     2021 UT             R.A. (2000) Decl.       Mag.   Observer
     Aug.  7.45538    3 14 16.77   +27 28 13.3          Sato
           7.46049    3 14 17.31   +27 28 16.5   19.6     "

中野主一氏は、2008年のCatalinaスカイサーベイの次の一夜の観測と同定した。

     2008 UT             R.A. (2000) Decl.       Mag.
     Nov. 30.27242    3 24 09.82   +31 07 39.1   19.4
          30.28324    3 24 09.07   +31 07 34.7   19.0
          30.29398    3 24 08.64   +31 07 29.3   18.3
          30.30474    3 24 07.95   +31 07 25.8   18.5

NK 2976およびICQ's 2015, 2020 & 2021 Comet Handbookの中野主一氏の予報に対し、
Delta(T)は、-37.6 daysであった。
MPC 114605のWilliamsの予報に対して、Delta(T)は、-35.6 daysであった。
彗星年表2021の佐藤裕久の予報に対する修正値は、Delta(T) =-34.6 daysであった。

MPCの連結軌道要素と位置推算表は次のとおり、

Orbital elements:
    P/2014 W12 (Gibbs)                                                          
Epoch 2014 Oct. 30.0 TT = JDT 2456960.5                                         
T 2014 Nov. 15.10718 TT                                 Rudenko                 
q   1.6745969            (2000.0)            P               Q                  
n   0.15148346     Peri.   36.96764     +0.90983318     +0.39437949             
a   3.4851855      Node   299.32538     -0.40728416     +0.78903809             
e   0.5195100      Incl.    8.51583     -0.07951851     +0.47104535             
P   6.51                                                                        
From 77 observations 2014 Nov. 30-2021 Aug. 17, mean residual 0".7.             
                                                                                
    P/2014 W12 (Gibbs)                                                          
Epoch 2021 May 26.0 TT = JDT 2459360.5                                          
T 2021 May 14.67928 TT                                  Rudenko                 
q   1.6739860            (2000.0)            P               Q                  
n   0.15147411     Peri.   36.81394     +0.90886593     +0.39661101             
a   3.4853290      Node   299.33851     -0.40920622     +0.78802886             
e   0.5197050      Incl.    8.51539     -0.08070303     +0.47086116             
P   6.51                                                                        
From 77 observations 2014 Nov. 30-2021 Aug. 17, mean residual 0".7.             
                                                                                
    P/2014 W12 (Gibbs)                                                          
Epoch 2027 Nov. 11.0 TT = JDT 2461720.5                                         
T 2027 Nov. 17.81724 TT                                 Rudenko                 
q   1.6821656            (2000.0)            P               Q                  
n   0.15105416     Peri.   36.82177     +0.90871346     +0.39701241             
a   3.4917858      Node   299.30692     -0.40949394     +0.78796978             
e   0.5182506      Incl.    8.50207     -0.08096029     +0.47062169             
P   6.52                                                                        
From 77 observations 2014 Nov. 30-2021 Aug. 17, mean residual 0".7.             
                                                                                
    P/2014 W12 (Gibbs)                                                          
Epoch 2021 July 5.0 TT = JDT 2459400.5                                          
T 2021 May 14.67200 TT                                  Rudenko                 
q   1.6739769            (2000.0)            P               Q                  
n   0.15150253     Peri.   36.81114     +0.90883951     +0.39667169             
a   3.4848931      Node   299.33749     -0.40925892     +0.78800315             
e   0.5196476      Incl.    8.51528     -0.08073342     +0.47085307             
P   6.51                                                                        
From 77 observations 2014 Nov. 30-2021 Aug. 17, mean residual 0".7.             
                                                                                
Ephemeris:
Date    TT    R. A. (2000) Decl.     Delta      r    Elong.  Phase   m1
2021 07 23    02 44 51.3 +24 33 10   1.7899  1.7981    74.0    32.9  18.8
...
2021 08 07    03 13 27.9 +27 23 32   1.7129  1.8528    81.2    32.8  18.8
...
2021 08 15    03 27 07.3 +28 41 35   1.6700  1.8850    85.6    32.4  18.9
...
2021 08 21    03 36 28.0 +29 34 32   1.6372  1.9104    89.1    32.0  18.9
2021 08 22    03 37 56.5 +29 42 55   1.6317  1.9147    89.7    31.9  18.9
2021 08 23    03 39 23.6 +29 51 10   1.6262  1.9190    90.3    31.8  18.9
...
2021 08 29    03 47 33.3 +30 38 08   1.5929  1.9457    94.1    31.2  18.9
...
2021 09 06    03 56 50.2 +31 34 05   1.5484  1.9826    99.5    30.1  18.9
...
2021 09 21    04 08 27.6 +32 58 28   1.4681  2.0553   111.1    27.1  19.0

(MPEC 2021-Q47、CBET 5025、oaa-comet 2122)

スレッド表示 | 新しいものから 前のトピック | 次のトピック | トップ

投稿するにはまず登録を
 
© 1999 Tsutomu Seki.